AEN20G EYVI-EDDH

Flight info

Callsign AEN20G
Flight time 1h 36m
Altitude 38000
Route UPASI DCT TUNGA DCT SUWGI L29 ALUKA DCT VIBIS L619 BUMIL/N0403F240 M748 RARUP RARUP3P
Aircraft A319/M-SDE3FGHIRWY/LB1

Departure

Time 2026-04-24 14:06
Airport Vilnius International Airport (EYVI)

Arrival

Time 2026-04-24 15:43
Airport Hamburg Helmut Schmidt Airport (EDDH)
Time Latitude Longitude Altitude Speed Heading
2026-04-24 13:25 54.64248 25.28281 638 ft 0 kts
2026-04-24 13:49 54.64240 25.28281 637 ft 4 kts
2026-04-24 13:49 54.64218 25.28281 638 ft 3 kts
2026-04-24 13:49 54.64192 25.28279 639 ft 4 kts 16°
2026-04-24 13:50 54.64175 25.28258 639 ft 1 kts 78°
2026-04-24 13:50 54.64175 25.28257 639 ft 0 kts 78°
2026-04-24 13:58 54.64177 25.28273 638 ft 2 kts 78°
2026-04-24 13:58 54.64179 25.28315 638 ft 4 kts 94°
2026-04-24 13:58 54.64156 25.28328 641 ft 5 kts 179°
2026-04-24 13:59 54.64117 25.28366 639 ft 8 kts 103°
2026-04-24 13:59 54.64117 25.28478 641 ft 10 kts 89°
2026-04-24 13:59 54.64120 25.28607 644 ft 11 kts 88°
2026-04-24 13:59 54.64094 25.28718 646 ft 12 kts 152°
2026-04-24 14:00 54.63997 25.28674 641 ft 18 kts 205°
2026-04-24 14:00 54.63881 25.28595 634 ft 20 kts 201°
2026-04-24 14:00 54.63755 25.28507 626 ft 19 kts 201°
2026-04-24 14:00 54.63640 25.28427 619 ft 17 kts 202°
2026-04-24 14:01 54.63518 25.28342 612 ft 19 kts 202°
2026-04-24 14:01 54.63393 25.28255 610 ft 19 kts 201°
2026-04-24 14:01 54.63270 25.28170 611 ft 19 kts 202°
2026-04-24 14:01 54.63161 25.28094 610 ft 16 kts 202°
2026-04-24 14:02 54.63051 25.28018 606 ft 18 kts 202°
2026-04-24 14:02 54.62928 25.27933 604 ft 20 kts 201°
2026-04-24 14:02 54.62798 25.27842 601 ft 20 kts 202°
2026-04-24 14:02 54.62671 25.27753 601 ft 19 kts 201°
2026-04-24 14:03 54.62556 25.27675 603 ft 15 kts 202°
2026-04-24 14:03 54.62494 25.27691 605 ft 9 kts 141°
2026-04-24 14:03 54.62484 25.27704 616 ft 0 kts 141°
2026-04-24 14:04 54.62479 25.27711 610 ft 2 kts 142°
2026-04-24 14:04 54.62458 25.27738 612 ft 6 kts 142°
2026-04-24 14:04 54.62420 25.27813 617 ft 11 kts 112°
2026-04-24 14:04 54.62464 25.27919 602 ft 13 kts 21°
2026-04-24 14:05 54.62496 25.27941 602 ft 0 kts 22°
2026-04-24 14:05 54.62496 25.27942 602 ft 0 kts 22°
2026-04-24 14:05 54.62514 25.27954 602 ft 14 kts 22°
2026-04-24 14:05 54.62873 25.28203 599 ft 93 kts 22°
2026-04-24 14:06 54.63672 25.28752 630 ft 151 kts 22°
2026-04-24 14:06 54.64668 25.29481 1167 ft 154 kts 19°
2026-04-24 14:06 54.65646 25.30177 1954 ft 150 kts 16°
2026-04-24 14:06 54.66620 25.30831 2608 ft 156 kts 15°
2026-04-24 14:07 54.67705 25.31552 3026 ft 179 kts 16°
2026-04-24 14:07 54.68934 25.32385 3462 ft 201 kts 17°
2026-04-24 14:07 54.70300 25.33326 3895 ft 222 kts 18°
2026-04-24 14:07 54.71790 25.34358 4598 ft 235 kts 18°
2026-04-24 14:08 54.73307 25.35421 5671 ft 235 kts 17°
2026-04-24 14:08 54.74828 25.36484 6704 ft 236 kts 17°
2026-04-24 14:08 54.76357 25.37552 7729 ft 237 kts 17°
2026-04-24 14:08 54.77906 25.38513 8749 ft 235 kts
2026-04-24 14:09 54.79516 25.38430 9732 ft 233 kts 343°
2026-04-24 14:09 54.80963 25.37121 10407 ft 247 kts 321°
2026-04-24 14:09 54.81971 25.34583 10947 ft 270 kts 298°
2026-04-24 14:09 54.82726 25.31427 11266 ft 295 kts 297°
2026-04-24 14:10 54.83487 25.28003 11752 ft 312 kts 292°
2026-04-24 14:10 54.83616 25.24134 12477 ft 337 kts 265°
2026-04-24 14:10 54.82617 25.20340 13243 ft 361 kts 238°
2026-04-24 14:10 54.80679 25.17418 13952 ft 380 kts 216°
2026-04-24 14:11 54.78257 25.15433 14640 ft 391 kts 204°
2026-04-24 14:11 54.75646 25.14008 15325 ft 397 kts 199°
2026-04-24 14:11 54.70425 25.10850 16643 ft 397 kts 216°
2026-04-24 14:12 54.68263 25.07967 17307 ft 390 kts 231°
2026-04-24 14:12 54.66357 25.04615 17995 ft 393 kts 232°
2026-04-24 14:12 54.64449 25.01198 18604 ft 396 kts 232°
2026-04-24 14:12 54.62524 24.97769 19204 ft 399 kts 232°
2026-04-24 14:13 54.60571 24.94336 19811 ft 402 kts 232°
2026-04-24 14:13 54.58588 24.90902 20415 ft 405 kts 231°
2026-04-24 14:13 54.56581 24.87466 21014 ft 409 kts 231°
2026-04-24 14:13 54.54549 24.84012 21608 ft 412 kts 231°
2026-04-24 14:14 54.52501 24.80538 22199 ft 415 kts 231°
2026-04-24 14:14 54.50594 24.76843 22770 ft 410 kts 240°
2026-04-24 14:14 54.48008 24.68299 23810 ft 402 kts 256°
2026-04-24 14:15 54.46993 24.63804 24277 ft 404 kts 256°
2026-04-24 14:15 54.45966 24.59285 24725 ft 407 kts 255°
2026-04-24 14:15 54.44930 24.54754 25181 ft 409 kts 255°
2026-04-24 14:15 54.43882 24.50195 25628 ft 411 kts 255°
2026-04-24 14:16 54.42825 24.45612 26062 ft 414 kts 255°
2026-04-24 14:16 54.41764 24.41014 26505 ft 416 kts 254°
2026-04-24 14:16 54.40690 24.36387 26945 ft 418 kts 254°
2026-04-24 14:17 54.38558 24.27053 27792 ft 420 kts 257°
2026-04-24 14:17 54.37712 24.22254 28220 ft 422 kts 259°
2026-04-24 14:17 54.36016 24.12575 29042 ft 426 kts 258°
2026-04-24 14:18 54.35156 24.07696 29453 ft 429 kts 258°
2026-04-24 14:18 54.34289 24.02796 29845 ft 431 kts 258°
2026-04-24 14:18 54.33416 23.97872 30171 ft 433 kts 258°
2026-04-24 14:18 54.32535 23.92925 30479 ft 435 kts 258°
2026-04-24 14:19 54.31934 23.89563 30690 ft 437 kts 258°
2026-04-24 14:19 54.30751 23.82963 31099 ft 440 kts 257°
2026-04-24 14:19 54.29848 23.77948 31403 ft 441 kts 257°
2026-04-24 14:20 54.26261 23.58209 33092 ft 437 kts 257°
2026-04-24 14:20 54.25359 23.53257 33522 ft 436 kts 257°
2026-04-24 14:21 54.24455 23.48313 33948 ft 435 kts 257°
2026-04-24 14:21 54.23554 23.43387 34302 ft 434 kts 257°
2026-04-24 14:21 54.22569 23.38501 34647 ft 437 kts 251°
2026-04-24 14:21 54.21183 23.33844 34972 ft 441 kts 246°
2026-04-24 14:22 54.19701 23.29263 35289 ft 441 kts 246°
2026-04-24 14:22 54.18223 23.24688 35603 ft 440 kts 246°
2026-04-24 14:22 54.15271 23.15540 36192 ft 440 kts 246°
2026-04-24 14:23 54.13795 23.10973 36474 ft 440 kts 246°
2026-04-24 14:23 54.12317 23.06412 36751 ft 439 kts 246°
2026-04-24 14:23 54.10835 23.01861 37016 ft 440 kts 246°
2026-04-24 14:23 54.09350 22.97310 37277 ft 440 kts 246°
2026-04-24 14:24 54.07895 22.92739 37527 ft 437 kts 250°
2026-04-24 14:24 54.06815 22.87951 37760 ft 431 kts 259°
2026-04-24 14:24 54.06172 22.82995 37897 ft 427 kts 264°
2026-04-24 14:25 54.05235 22.74741 37911 ft 427 kts 264°
2026-04-24 14:25 54.03881 22.63149 37913 ft 427 kts 264°
2026-04-24 14:26 54.02714 22.53244 37912 ft 427 kts 264°
2026-04-24 14:26 54.01541 22.43336 37916 ft 427 kts 264°
2026-04-24 14:27 54.00363 22.33447 37913 ft 427 kts 264°
2026-04-24 14:27 53.99175 22.23552 37915 ft 427 kts 264°
2026-04-24 14:28 53.97983 22.13666 37922 ft 427 kts 264°
2026-04-24 14:28 53.96779 22.03781 37923 ft 427 kts 264°
2026-04-24 14:29 53.95568 21.93910 37928 ft 427 kts 264°
2026-04-24 14:29 53.94354 21.84040 37921 ft 427 kts 263°
2026-04-24 14:30 53.93335 21.75840 37941 ft 427 kts 263°
2026-04-24 14:30 53.91893 21.64317 37945 ft 427 kts 263°
2026-04-24 14:31 53.90652 21.54472 37945 ft 427 kts 263°
2026-04-24 14:31 53.89401 21.44639 37947 ft 426 kts 263°
2026-04-24 14:32 53.88145 21.34821 37946 ft 426 kts 263°
2026-04-24 14:32 53.86878 21.25019 37947 ft 426 kts 263°
2026-04-24 14:33 53.85605 21.15225 37949 ft 425 kts 263°
2026-04-24 14:33 53.84337 21.05455 37951 ft 425 kts 263°
2026-04-24 14:34 53.83057 20.95703 37950 ft 424 kts 263°
2026-04-24 14:34 53.81982 20.87603 37957 ft 424 kts 263°
2026-04-24 14:35 53.80683 20.77887 37956 ft 423 kts 263°
2026-04-24 14:35 53.79381 20.68181 37962 ft 423 kts 263°
2026-04-24 14:36 53.78059 20.58434 37960 ft 422 kts 263°
2026-04-24 14:36 53.76748 20.48784 37960 ft 421 kts 263°
2026-04-24 14:37 53.75431 20.39141 37960 ft 421 kts 263°
2026-04-24 14:37 53.74110 20.29506 37965 ft 420 kts 263°
2026-04-24 14:38 53.72778 20.19899 37964 ft 420 kts 263°
2026-04-24 14:38 53.71438 20.10299 37966 ft 419 kts 263°
2026-04-24 14:39 53.70092 20.00726 37969 ft 419 kts 263°
2026-04-24 14:39 53.68738 19.91167 37966 ft 419 kts 262°
2026-04-24 14:40 53.67381 19.81625 37967 ft 418 kts 263°
2026-04-24 14:40 53.66020 19.72092 37969 ft 418 kts 262°
2026-04-24 14:41 53.64645 19.62577 37972 ft 418 kts 262°
2026-04-24 14:41 53.63263 19.53073 37974 ft 417 kts 262°
2026-04-24 14:42 53.61880 19.43583 37976 ft 417 kts 262°
2026-04-24 14:42 53.60492 19.34110 37974 ft 416 kts 262°
2026-04-24 14:43 53.59098 19.24660 37971 ft 416 kts 262°
2026-04-24 14:43 53.57705 19.15225 37974 ft 415 kts 262°
2026-04-24 14:44 53.56299 19.05807 37970 ft 415 kts 262°
2026-04-24 14:44 53.54886 18.96412 37969 ft 414 kts 262°
2026-04-24 14:45 53.53468 18.87039 37967 ft 413 kts 262°
2026-04-24 14:45 53.52038 18.77683 37971 ft 413 kts 262°
2026-04-24 14:46 53.50822 18.68305 37966 ft 409 kts 265°
2026-04-24 14:46 53.49784 18.58915 37970 ft 409 kts 266°
2026-04-24 14:47 53.48715 18.49550 37969 ft 408 kts 265°
2026-04-24 14:47 53.47584 18.40202 37967 ft 408 kts 265°
2026-04-24 14:48 53.46433 18.30873 37975 ft 408 kts 265°
2026-04-24 14:48 53.45282 18.21558 37969 ft 407 kts 265°
2026-04-24 14:49 53.44127 18.12263 37970 ft 407 kts 265°
2026-04-24 14:49 53.42968 18.02983 37985 ft 406 kts 265°
2026-04-24 14:50 53.41809 17.93720 37969 ft 406 kts 265°
2026-04-24 14:50 53.40641 17.84466 37968 ft 406 kts 265°
2026-04-24 14:51 53.39470 17.75224 37980 ft 405 kts 265°
2026-04-24 14:51 53.38293 17.65993 37968 ft 405 kts 265°
2026-04-24 14:52 53.37110 17.56781 37978 ft 405 kts 264°
2026-04-24 14:52 53.35916 17.47579 37973 ft 404 kts 264°
2026-04-24 14:53 53.34716 17.38395 37980 ft 404 kts 264°
2026-04-24 14:53 53.33503 17.29221 37978 ft 404 kts 264°
2026-04-24 14:54 53.32290 17.20060 37981 ft 403 kts 264°
2026-04-24 14:54 53.31076 17.10903 37982 ft 403 kts 264°
2026-04-24 14:55 53.30062 17.03299 37978 ft 403 kts 264°
2026-04-24 14:55 53.28619 16.92623 37980 ft 403 kts 264°
2026-04-24 14:56 53.27376 16.83487 37987 ft 403 kts 264°
2026-04-24 14:56 53.26137 16.74366 37988 ft 403 kts 264°
2026-04-24 14:57 53.24881 16.65244 37991 ft 403 kts 264°
2026-04-24 14:57 53.23621 16.56138 37995 ft 403 kts 263°
2026-04-24 14:58 53.22356 16.47025 37999 ft 403 kts 263°
2026-04-24 14:58 53.21080 16.37924 38003 ft 403 kts 263°
2026-04-24 14:59 53.19794 16.28834 38006 ft 403 kts 263°
2026-04-24 14:59 53.18497 16.19753 38009 ft 403 kts 263°
2026-04-24 15:00 53.17198 16.10686 38017 ft 402 kts 263°
2026-04-24 15:00 53.15896 16.01616 38018 ft 402 kts 263°
2026-04-24 15:01 53.14591 15.92558 38023 ft 402 kts 263°
2026-04-24 15:01 53.13272 15.83501 38023 ft 402 kts 262°
2026-04-24 15:02 53.11947 15.74453 38019 ft 402 kts 262°
2026-04-24 15:02 53.10617 15.65417 38024 ft 402 kts 262°
2026-04-24 15:03 53.09498 15.57847 38026 ft 402 kts 262°
2026-04-24 15:03 53.07935 15.47356 38028 ft 402 kts 262°
2026-04-24 15:04 53.06585 15.38330 38031 ft 402 kts 262°
2026-04-24 15:04 53.05235 15.29318 38032 ft 402 kts 262°
2026-04-24 15:05 53.03875 15.20307 38033 ft 402 kts 262°
2026-04-24 15:05 53.02510 15.11307 38034 ft 402 kts 261°
2026-04-24 15:06 53.01139 15.02306 38038 ft 402 kts 261°
2026-04-24 15:06 52.99757 14.93255 38044 ft 402 kts 261°
2026-04-24 15:07 52.98369 14.84272 38051 ft 402 kts 261°
2026-04-24 15:07 52.96975 14.75356 38047 ft 402 kts 261°
2026-04-24 15:08 52.96412 14.66332 38050 ft 390 kts 279°
2026-04-24 15:08 52.96946 14.57377 38051 ft 390 kts 279°
2026-04-24 15:09 52.97488 14.48418 38050 ft 390 kts 279°
2026-04-24 15:09 52.98019 14.39450 38054 ft 391 kts 278°
2026-04-24 15:10 52.98540 14.30411 38058 ft 391 kts 278°
2026-04-24 15:10 52.99048 14.21497 38058 ft 391 kts 278°
2026-04-24 15:11 52.99553 14.12454 38061 ft 391 kts 278°
2026-04-24 15:11 52.99969 14.04989 38062 ft 391 kts 278°
2026-04-24 15:12 53.00462 13.95997 38065 ft 391 kts 278°
2026-04-24 15:12 53.01189 13.82509 38068 ft 391 kts 278°
2026-04-24 15:13 53.01664 13.73504 38065 ft 391 kts 278°
2026-04-24 15:13 53.02133 13.64502 38069 ft 391 kts 277°
2026-04-24 15:14 53.02605 13.55489 38068 ft 392 kts 277°
2026-04-24 15:14 53.03063 13.46476 38073 ft 392 kts 277°
2026-04-24 15:15 53.03515 13.37451 38077 ft 392 kts 277°
2026-04-24 15:15 53.03962 13.28426 38076 ft 392 kts 277°
2026-04-24 15:16 53.04398 13.19400 38080 ft 392 kts 277°
2026-04-24 15:16 53.04823 13.10361 38082 ft 392 kts 277°
2026-04-24 15:17 53.05246 13.01316 38081 ft 392 kts 277°
2026-04-24 15:17 53.05666 12.92272 38078 ft 393 kts 276°
2026-04-24 15:18 53.06074 12.83219 38080 ft 393 kts 276°
2026-04-24 15:18 53.06477 12.74134 37567 ft 396 kts 276°
2026-04-24 15:19 53.06610 12.71122 37205 ft 394 kts 276°
2026-04-24 15:19 53.06747 12.67965 36838 ft 393 kts 276°
2026-04-24 15:19 53.06943 12.63428 36314 ft 393 kts 276°
2026-04-24 15:19 53.07141 12.58895 35806 ft 393 kts 276°
2026-04-24 15:20 53.07338 12.54354 35302 ft 394 kts 276°
2026-04-24 15:20 53.07532 12.49810 34765 ft 394 kts 276°
2026-04-24 15:20 53.07721 12.45264 34234 ft 395 kts 276°
2026-04-24 15:20 53.07907 12.40704 33650 ft 395 kts 276°
2026-04-24 15:21 53.08092 12.36155 33056 ft 393 kts 275°
2026-04-24 15:21 53.08275 12.31629 32475 ft 391 kts 276°
2026-04-24 15:21 53.08457 12.27125 31908 ft 389 kts 275°
2026-04-24 15:21 53.08637 12.22648 31355 ft 387 kts 275°
2026-04-24 15:22 53.08816 12.18182 30804 ft 386 kts 275°
2026-04-24 15:22 53.08990 12.13735 30273 ft 384 kts 275°
2026-04-24 15:22 53.09161 12.09314 29667 ft 382 kts 275°
2026-04-24 15:23 53.09494 12.00546 28454 ft 377 kts 275°
2026-04-24 15:23 53.09815 11.91901 27293 ft 371 kts 275°
2026-04-24 15:23 53.09976 11.87631 26719 ft 369 kts 275°
2026-04-24 15:24 53.10444 11.74950 25105 ft 363 kts 275°
2026-04-24 15:25 53.10688 11.67939 24277 ft 360 kts 275°
2026-04-24 15:25 53.11007 11.58393 24117 ft 355 kts 275°
2026-04-24 15:26 53.11424 11.46099 24119 ft 355 kts 275°
2026-04-24 15:27 53.12015 11.33843 24124 ft 353 kts 285°
2026-04-24 15:27 53.16081 11.24067 23237 ft 344 kts 326°
2026-04-24 15:28 53.24144 11.16852 22236 ft 324 kts 329°
2026-04-24 15:29 53.28109 11.13348 21433 ft 321 kts 329°
2026-04-24 15:30 53.33915 11.08003 20379 ft 313 kts 321°
2026-04-24 15:31 53.40769 10.98996 19171 ft 311 kts 320°
2026-04-24 15:32 53.47524 10.90029 17542 ft 307 kts 321°
2026-04-24 15:33 53.54331 10.80858 15951 ft 320 kts 321°
2026-04-24 15:33 53.59526 10.73670 14310 ft 325 kts 321°
2026-04-24 15:34 53.62992 10.68790 13052 ft 324 kts 321°
2026-04-24 15:35 53.67988 10.61691 11229 ft 299 kts 320°
2026-04-24 15:35 53.71049 10.57291 10178 ft 282 kts 321°
2026-04-24 15:35 53.72533 10.55143 9661 ft 273 kts 321°
2026-04-24 15:36 53.73922 10.53016 9098 ft 267 kts 313°
2026-04-24 15:36 53.75497 10.47409 7982 ft 262 kts 295°
2026-04-24 15:36 53.76132 10.44534 7447 ft 261 kts 295°
2026-04-24 15:37 53.76756 10.41664 6928 ft 259 kts 294°
2026-04-24 15:37 53.77366 10.38825 6416 ft 254 kts 294°
2026-04-24 15:37 53.77940 10.36031 5874 ft 250 kts 288°
2026-04-24 15:37 53.77976 10.33091 5348 ft 252 kts 267°
2026-04-24 15:38 53.77702 10.30175 4802 ft 250 kts 263°
2026-04-24 15:38 53.77057 10.27447 4301 ft 252 kts 239°
2026-04-24 15:38 53.75972 10.25189 3950 ft 242 kts 234°
2026-04-24 15:38 53.74919 10.23035 3630 ft 233 kts 234°
2026-04-24 15:39 53.73904 10.20958 3322 ft 225 kts 235°
2026-04-24 15:39 53.72928 10.18962 3018 ft 216 kts 234°
2026-04-24 15:39 53.71998 10.17064 2773 ft 200 kts 235°
2026-04-24 15:39 53.71146 10.15329 2473 ft 184 kts 236°
2026-04-24 15:40 53.70355 10.13714 2232 ft 174 kts 236°
2026-04-24 15:40 53.69600 10.12172 1998 ft 168 kts 236°
2026-04-24 15:40 53.68861 10.10664 1766 ft 166 kts 236°
2026-04-24 15:40 53.68128 10.09170 1539 ft 164 kts 236°
2026-04-24 15:41 53.67427 10.07746 1322 ft 150 kts 236°
2026-04-24 15:41 53.66804 10.06484 1114 ft 131 kts 237°
2026-04-24 15:41 53.66242 10.05341 928 ft 124 kts 237°
2026-04-24 15:41 53.65701 10.04239 759 ft 120 kts 237°
2026-04-24 15:42 53.65170 10.03149 582 ft 119 kts 239°
2026-04-24 15:42 53.64637 10.02066 404 ft 120 kts 237°
2026-04-24 15:42 53.64101 10.00990 245 ft 119 kts 235°
2026-04-24 15:42 53.63575 9.99922 94 ft 118 kts 235°
2026-04-24 15:43 53.63090 9.98925 46 ft 92 kts 230°
2026-04-24 15:43 53.62790 9.98323 43 ft 44 kts 231°
2026-04-24 15:43 53.62619 9.97972 42 ft 36 kts 230°
2026-04-24 15:43 53.62491 9.97776 41 ft 17 kts 184°
2026-04-24 15:44 53.62429 9.97908 46 ft 14 kts 89°
2026-04-24 15:44 53.62445 9.98061 47 ft 14 kts 78°
2026-04-24 15:44 53.62463 9.98224 47 ft 15 kts 79°
2026-04-24 15:44 53.62484 9.98397 47 ft 15 kts 78°
2026-04-24 15:45 53.62504 9.98578 47 ft 16 kts 79°
2026-04-24 15:45 53.62527 9.98769 46 ft 17 kts 79°
2026-04-24 15:45 53.62548 9.98969 47 ft 18 kts 79°
2026-04-24 15:45 53.62572 9.99176 47 ft 18 kts 78°
2026-04-24 15:46 53.62596 9.99390 45 ft 19 kts 79°
2026-04-24 15:46 53.62619 9.99590 47 ft 18 kts 78°
2026-04-24 15:46 53.62647 9.99794 46 ft 18 kts 65°
2026-04-24 15:46 53.62753 9.99914 46 ft 19 kts 29°
2026-04-24 15:47 53.62862 10.00029 47 ft 18 kts 41°
2026-04-24 15:47 53.62969 10.00157 48 ft 19 kts 33°
2026-04-24 15:47 53.63080 10.00262 47 ft 15 kts
2026-04-24 15:47 53.63185 10.00251 48 ft 11 kts 357°
2026-04-24 15:48 53.63204 10.00284 47 ft 2 kts 101°
2026-04-24 15:48 53.63204 10.00329 48 ft 5 kts 85°
2026-04-24 15:48 53.63206 10.00366 48 ft 0 kts 86°